This is the latest recevied weather packets stored in our database for station/object K0CPM-2. If no packets are shown the sender has not sent any weather packets the latest 10 day(s).
| Time | Temp. | Humidity | Pressure | Rain* | Wind** | Luminosity | Snow |
|---|---|---|---|---|---|---|---|
| 1777684533 | 14.44° C | 89% | 1008.6 hPa | 1.52 mm | - | - | - |
| 1777683631 | 14.44° C | 89% | 1009.1 hPa | 4.32 mm | - | - | - |
| 1777682728 | 14.44° C | 89% | 1008.3 hPa | 5.59 mm | - | - | - |
| 1777681828 | 14.44° C | 89% | 1008.6 hPa | 6.86 mm | - | - | - |
| 1777680926 | 14.44° C | 89% | 1008.1 hPa | 8.89 mm | - | - | - |
| 1777680042 | 14.44° C | 89% | 1007.9 hPa | 5.59 mm | - | - | - |
| 1777679124 | 14.44° C | 89% | 1007.8 hPa | 4.83 mm | - | - | - |
| 1777678222 | 14.44° C | 89% | 1008.3 hPa | 3.3 mm | - | - | - |
| 1777677324 | 14.44° C | 89% | 1008.1 hPa | 0.51 mm | - | - | - |
| 1777676422 | 14.44° C | 89% | 1007.7 hPa | 0 mm | - | - | - |
| 1777675516 | 15° C | 89% | 1007.5 hPa | 0 mm | - | - | - |
| 1777674615 | 15.56° C | 89% | 1007.8 hPa | 0.25 mm | - | - | - |
| 1777673719 | 16.11° C | 89% | 1008.2 hPa | 1.52 mm | - | - | - |
| 1777672814 | 16.67° C | 89% | 1007.4 hPa | 1.78 mm | - | - | - |
| 1777671913 | 16.67° C | 89% | 1007.5 hPa | 3.05 mm | - | - | - |
| 1777671009 | 16.11° C | 89% | 1008.5 hPa | 4.32 mm | - | - | - |
| 1777670107 | 16.11° C | 89% | 1008.4 hPa | 7.11 mm | - | - | - |
| 1777669207 | 16.67° C | 89% | 1008 hPa | 13.72 mm | - | - | - |
| 1777668303 | 16.67° C | 89% | 1009 hPa | 25.65 mm | - | - | - |
| 1777667402 | 16.67° C | 89% | 1008 hPa | 25.4 mm | - | - | - |
| 1777666570 | 17.22° C | 89% | 1008.9 hPa | 22.1 mm | - | - | - |
| 1777665655 | 17.78° C | 89% | 1008 hPa | 15.49 mm | - | - | - |
| 1777664751 | 18.33° C | 89% | 1007.2 hPa | 2.03 mm | - | - | - |
| 1777663850 | 18.33° C | 89% | 1006.9 hPa | 0.76 mm | - | - | - |
| 1777662948 | 18.89° C | 89% | 1007 hPa | 0 mm | - | - | - |
* Rain latest hour (hover to see other rain measurements)
** Current wind speed in m/s (hover to see current wind gust speed)